Findlay, OH

2:54 AM EDT on August 27, 2016 (GMT -0400)
Findlay

Weather History for KFDY - December, 2012

Change the Weather History Date:

Thursday, December 6, 2012

  Actual Average Record
Temperature  
Mean Temperature 34 °F -  
Max Temperature 42 °F 39 °F 69 °F (1998)
Min Temperature 26 °F 25 °F 0 °F (1977)
Degree Days  
Heating Degree Days 31    
Moisture  
Dew Point 27 °F    
Average Humidity 76    
Maximum Humidity 89    
Minimum Humidity 65    
Precipitation  
Precipitation 0.00 in - - ()
Sea Level Pressure  
Sea Level Pressure 30.15 in    
Wind  
Wind Speed 7 mph (SE)    
Max Wind Speed 15 mph    
Max Gust Speed 21 mph    
Visibility 10 miles    
Events      
Averages and records for this station are not official NWS values.
T = Trace of Precipitation, MM = Missing Value Source: NWS Daily Summary

Daily Weather History Graph

Daily Weather History Graph

Search for Another Location

Airport or City:

Trip Planner

Search our weather history database for the weather conditions in past years. The results will help you decide how hot, cold, wet, or windy it might be!

Date:

Astronomy

Dec. 06, 2012 Rise Set
Actual Time 7:45 AM EST 5:06 PM EST
Civil Twilight 7:14 AM EST 5:37 PM EST
Nautical Twilight 6:40 AM EST 6:11 PM EST
Astronomical Twilight 6:07 AM EST 6:44 PM EST
Moon No Moon Rise 12:35 PM EST (12/6)
Length of Visible Light 10h 22m
Length of Day
9h 20m
Waning Gibbous, 49% of the Moon is Illuminated
Dec 6
Waning Gibbous
Dec 13
New
Dec 20
First Quarter
Dec 28
Full
Jan 4
Last Quarter

Hourly Weather History & Observations

Time (EST) Temp. Windchill Dew Point Humidity Pressure Visibility Wind Dir Wind Speed Gust Speed Precip Events Conditions
12:53 AM 28.0 °F 21.7 °F 21.0 °F 75% 30.33 in 10.0 mi East 5.8 mph - N/A   Clear
1:53 AM 27.0 °F 20.5 °F 21.0 °F 78% 30.32 in 10.0 mi ESE 5.8 mph - N/A   Clear
2:53 AM 27.0 °F 18.7 °F 21.9 °F 81% 30.30 in 10.0 mi ESE 8.1 mph - N/A   Clear
3:53 AM 27.0 °F 19.5 °F 21.9 °F 81% 30.29 in 10.0 mi East 6.9 mph - N/A   Clear
4:53 AM 27.0 °F 20.5 °F 21.9 °F 81% 30.27 in 10.0 mi ESE 5.8 mph - N/A   Clear
5:53 AM 27.0 °F 18.7 °F 21.9 °F 81% 30.27 in 10.0 mi ESE 8.1 mph - N/A   Clear
6:53 AM 26.1 °F 21.9 °F 21.0 °F 81% 30.28 in 10.0 mi SE 3.5 mph - N/A   Clear
7:53 AM 26.1 °F 18.4 °F 21.0 °F 81% 30.25 in 10.0 mi ESE 6.9 mph - N/A   Clear
8:53 AM 28.9 °F 18.6 °F 23.0 °F 78% 30.21 in 10.0 mi ESE 12.7 mph - N/A   Clear
9:53 AM 32.0 °F 21.6 °F 25.0 °F 75% 30.19 in 10.0 mi SSE 15.0 mph 20.7 mph N/A   Clear
10:53 AM 34.0 °F 27.2 °F 27.0 °F 75% 30.21 in 10.0 mi South 8.1 mph - N/A   Clear
11:53 AM 37.0 °F 30.4 °F 28.0 °F 70% 30.17 in 10.0 mi South 9.2 mph - N/A   Clear
12:53 PM 37.9 °F 31.5 °F 28.9 °F 70% 30.13 in 10.0 mi South 9.2 mph - N/A   Clear
1:53 PM 39.9 °F 33.9 °F 30.0 °F 68% 30.08 in 10.0 mi SSE 9.2 mph - N/A   Clear
2:53 PM 42.1 °F 37.1 °F 30.9 °F 65% 30.06 in 10.0 mi SSE 8.1 mph - N/A   Clear
3:53 PM 42.1 °F 38.4 °F 33.1 °F 70% 30.05 in 10.0 mi SE 5.8 mph - N/A   Clear
4:53 PM 39.9 °F 36.7 °F 32.0 °F 73% 30.04 in 10.0 mi ESE 4.6 mph - N/A   Clear
5:53 PM 39.9 °F 35.8 °F 30.9 °F 70% 30.04 in 10.0 mi SSE 5.8 mph - N/A   Clear
6:53 PM 39.0 °F 35.7 °F 30.9 °F 73% 30.04 in 10.0 mi SE 4.6 mph - N/A   Clear
7:53 PM 39.0 °F 34.8 °F 32.0 °F 76% 30.03 in 10.0 mi SE 5.8 mph - N/A   Clear
8:53 PM 37.9 °F 33.5 °F 32.0 °F 79% 30.01 in 10.0 mi SSE 5.8 mph - N/A   Clear
9:53 PM 37.9 °F 35.5 °F 33.1 °F 83% 30.00 in 10.0 mi South 3.5 mph - N/A   Overcast
10:53 PM 39.0 °F 35.7 °F 34.0 °F 82% 29.98 in 10.0 mi SSE 4.6 mph - N/A   Overcast
11:53 PM 39.0 °F 36.8 °F 36.0 °F 89% 29.98 in 10.0 mi South 3.5 mph - 0.00 in   Overcast